#timestamp,LO_Frequency,Hit,StdDev 
1514289615.7,286047000.2,N
1514289635.6,286047003.9,N
1514289655.4,286047003.6,N
1514289675.2,286047007.6,Y
1514289695.1,286047007.6,P
1514289696.0,286047007.6,N
1514289715.8,286047007.0,N
1514289735.7,286047007.5,N
1514289755.5,286047004.0,N
1514289775.3,286047002.8,N
1514289795.2,286046998.4,N
1514289815.0,286046997.6,N
1514289815.9,286046997.6,N
1514289835.8,286046997.8,N
1514289855.6,286046995.7,N
1514289875.4,286046997.7,N
1514289895.3,286046996.6,N
1514289915.1,286046997.6,N
1514289935.8,286046996.9,N
1514289955.7,286046997.2,N
1514289975.5,286046995.3,N
1514289995.4,286046998.4,N
1514290015.2,286046998.7,N
1514290035.0,286046999.6,N
1514290035.9,286046999.6,N
1514290055.8,286046998.2,N
1514290075.6,286047002.0,N
1514290095.5,286047001.3,N
1514290115.3,286047003.0,N
1514290135.1,286047004.3,N
1514290155.9,286046998.5,N
1514290175.7,286046996.6,N
1514290195.5,286046999.4,N
1514290215.4,286046999.4,N
1514290235.2,286046998.1,N
1514290255.1,286046996.9,N
1514290256.0,286046996.9,N
1514290275.8,286046995.7,N
1514290295.6,286046995.1,N
1514290315.5,286046994.9,N
1514290335.3,286046997.3,N
1514290355.2,286046999.8,N
1514290375.9,286047000.5,N
1514290395.7,286046999.7,N
1514290415.6,286047001.9,N
1514290435.4,286047002.0,N
1514290455.2,286047004.3,N
1514290475.1,286047001.7,N
1514290476.0,286047001.7,N
1514290495.8,286047000.3,N
1514290515.7,286047000.3,N
1514290535.5,286046998.7,N
1514290555.3,286047000.9,N
1514290575.2,286047000.0,N
1514290595.0,286046998.5,N
1514290595.9,286046998.5,N
1514290615.8,286046998.1,N
1514290635.6,286046999.6,N
1514290655.4,286046998.3,N
1514290675.3,286046998.0,N
1514290695.1,286046997.8,N
1514290715.8,286046994.9,N
1514290735.7,286046999.0,N
1514290755.5,286046998.6,N
1514290775.4,286047000.8,N
1514290795.2,286046996.5,N
1514290815.0,286046997.8,N
1514290815.9,286046997.8,N
1514290835.8,286046998.2,N
1514290855.6,286047002.7,N
1514290875.5,286046998.8,N
1514290895.3,286046998.6,N
1514290915.1,286046998.7,N
1514290935.9,286046999.1,N
1514290955.7,286046998.0,N
1514290975.5,286046997.0,N
1514290995.4,286046996.8,N
1514291015.2,286046996.2,N
1514291035.1,286046995.6,N
1514291036.0,286046995.6,N
1514291055.8,286046997.4,N
1514291075.6,286046996.9,N
1514291095.5,286046996.5,N
1514291115.3,286046996.7,N
1514291135.2,286046997.2,N
1514291155.9,286046997.2,N
1514291175.7,286046995.8,N
1514291195.6,286046995.0,Y
1514291215.4,286047002.7,P
1514291235.2,286047002.4,N
1514291255.1,286047002.0,N
1514291256.0,286047002.0,N
1514291275.8,286047004.0,N
1514291295.7,286047006.0,Y
1514291315.5,286046999.9,P
1514291335.3,286046998.9,N
1514291355.2,286046998.2,N
1514291375.0,286047000.7,N
1514291375.9,286047000.7,N
1514291395.8,286046998.1,N
1514291415.6,286047000.6,N
1514291435.4,286047011.9,Y
1514291455.3,286046998.5,P
1514291475.1,286047002.2,P
1514291495.9,286047001.5,N
1514291515.7,286047004.1,N
1514291535.5,286047003.1,N
1514291555.4,286047001.4,N
1514291575.2,286047002.7,N
1514291595.0,286047001.9,N
1514291595.9,286047001.9,N
1514291615.8,286047005.6,Y
1514291635.6,286047004.1,P
1514291685.5,286047003.0,E
1514291695.4,286047001.8,N
1514291715.3,286046998.7,P
1514291735.1,286046999.4,N
1514291736.0,286046999.4,N
1514291755.8,286046998.7,N
1514291775.7,286046999.8,N
1514291795.5,286046998.7,N
1514291815.3,286047000.6,N
1514291835.2,286047000.0,N
1514291855.0,286046998.5,N
1514291855.9,286046998.5,N
1514291875.8,286047000.1,N
1514291895.6,286047002.2,N
1514291915.4,286047001.6,N
1514291935.3,286047005.3,Y
1514291955.1,286047005.9,P
1514291975.8,286047004.0,N
1514291995.7,286047004.2,N
1514292015.5,286047003.6,N
1514292035.4,286047003.4,N
1514292055.2,286047001.7,N
1514292075.0,286047000.9,N
1514292075.9,286047000.9,N
1514292095.8,286047001.0,N
1514292115.6,286046998.1,N
1514292135.5,286047000.6,N
1514292155.3,286047000.6,N
1514292175.1,286047000.5,N
1514292195.9,286047000.1,N
1514292215.7,286047000.5,N
1514292235.5,286047002.3,N
1514292255.4,286047000.1,N
1514292275.2,286047000.2,N
1514292295.1,286046998.5,N
1514292296.0,286046998.5,N
1514292315.8,286046998.4,N
1514292335.6,286046998.7,N
1514292355.5,286047000.9,N
1514292375.3,286046998.1,N
1514292395.1,286047001.4,N
1514292415.9,286047002.3,N
1514292435.7,286047001.4,N
1514292455.6,286047001.8,N
1514292475.4,286047002.4,N
1514292495.2,286047000.2,N
1514292515.1,286047003.2,N
1514292516.0,286047003.2,N
1514292535.8,286047005.6,Y
1514292555.7,286047000.4,P
1514292575.5,286046998.2,P
1514292595.3,286046998.4,N
1514292615.2,286046999.2,N
1514292635.0,286046998.6,N
1514292635.9,286046998.6,N
1514292655.7,286047000.8,N
1514292675.6,286047000.6,N
1514292695.4,286046998.3,N
1514292715.3,286047000.9,N
1514292735.1,286046998.1,N
1514292736.0,286046998.1,N
1514292755.8,286046998.4,N
1514292775.7,286046999.4,N
1514292795.5,286046999.0,N
1514292815.4,286046996.5,Y
1514292835.2,286047001.0,P
1514292855.0,286047001.1,N
1514292855.9,286047001.1,N
1514292875.8,286046999.9,N
1514292895.6,286047002.1,N
1514292915.4,286047003.3,Y
1514292935.3,286047005.7,P
1514292955.1,286047005.7,N
1514292975.9,286047002.0,N
1514292995.7,286047002.5,N
1514293015.5,286047002.4,N
1514293035.4,286047005.5,N
1514293055.2,286047005.4,N
1514293075.1,286047003.8,N
1514293076.0,286047003.8,N
1514293095.8,286047003.5,N
1514293115.6,286047003.8,N
1514293135.5,286047005.2,Y
1514293155.3,286047002.1,P
1514293175.2,286047003.1,P
1514293195.9,286047002.2,P
